[[{"header":{"parameterUnit":"m.s-1","parameterCategory":1,"la1":30.2991,"la2":30.254,"lo1":-89.0895,"lo2":-89.0444,"dy":0.0017,"dx":0.0017,"nx":28,"ny":28,"refTime":"2025-01-06T09:00:00:Z","depth":0,"parameterNumber":2,"parameterNumberName":"U-component_of_WINDS"},"data":[0,0,0,0,0,0,0,0,0,0,0,0,0,0,0,0,0,0,0,0,0,0,0,0,0,0,0,0,0,0,0,0,0,0,0,0,0,0,0,0,0,0,0,0,0,0,0,0,0,0,0,0,0,0,0,0,0,0,6.6178,6.6179,0,6.6313,6.6314,6.6316,6.6262,6.6259,6.6256,6.6253,6.6388,6.6395,6.6401,0,0,0,0,0,0,0,0,0,0,0,0,0,6.5873,6.5879,6.6178,6.618,6.6181,6.6313,6.6314,6.6316,6.6263,6.6259,6.6255,6.6251,6.6386,6.6394,6.6402,0,0,0,0,0,0,0,0,0,0,0,0,0,6.6006,6.5881,6.6178,6.617,6.6171,6.6312,6.6314,6.6317,6.6263,6.6259,6.6254,6.6249,6.6384,6.6393,6.6403,6.6558,0,0,6.6433,6.6437,0,0,0,0,0,0,0,0,6.5999,6.6018,6.617,6.6171,6.6172,6.6266,6.6257,6.6398,6.6265,6.6228,6.6253,6.6247,6.6351,6.6363,6.6399,6.6565,6.657,6.6434,6.644,6.6444,6.6447,0,0,0,0,0,0,0,6.599,6.6012,6.6231,6.6172,6.6174,6.616,6.6174,6.6283,6.6315,6.6231,6.6227,6.6244,6.6351,6.639,6.6402,6.6572,6.6433,6.6442,6.6448,6.6452,6.6874,6.688,0,0,0,0,0,0,6.598,6.6004,6.6227,6.6235,6.6072,6.6169,6.6185,6.624,6.6313,6.632,6.6248,6.6241,6.6375,6.639,6.6406,6.6595,6.6444,6.6453,6.6459,6.6869,6.6876,6.6881,0,0,0,0,0,0,6.5974,6.6001,6.6221,6.6119,6.6146,6.618,6.6243,6.6246,6.6284,6.6326,6.6331,6.6282,6.6372,6.6392,6.6522,6.6598,6.6457,6.6466,6.6863,6.6871,6.6879,6.6971,0,0,0,0,0,0,6.5966,6.5999,6.6058,6.6121,6.6152,6.6335,6.6247,6.6252,6.6302,6.6294,6.6359,6.6366,6.637,6.6507,6.6531,6.6609,6.6474,6.6856,6.6867,6.6876,6.6961,6.6981,6.6999,0,0,0,0,0,6.5955,6.6078,6.6062,6.6089,6.6227,6.6339,6.6357,6.636,6.6308,6.6368,6.6396,6.6364,6.6586,6.6521,6.6548,6.663,6.6851,6.6864,6.6875,6.6953,6.6978,6.6998,0,0,0,0,0,0,6.6022,6.6086,6.6068,6.6215,6.6273,6.633,6.6406,6.6386,6.6458,6.6447,6.6447,6.6463,6.6596,6.6626,6.6552,6.6785,6.6711,6.6729,6.6761,6.6784,6.6803,6.6793,6.6482,0,0,0,0,0,6.6055,6.6141,6.6192,6.6317,6.6347,6.6372,6.6421,6.6419,6.6477,6.6501,6.6537,6.6595,6.6678,6.6733,6.6811,6.6966,6.698,6.7035,6.7054,6.7069,6.7084,6.717,6.7195,6.6921,6.6921,6.692,0,0,6.6122,6.6167,6.6221,6.6332,6.6376,6.6465,6.6392,6.649,6.6556,6.6515,6.664,6.6669,6.6734,6.6877,6.6941,6.6905,6.7164,6.7084,6.7096,6.7103,6.7185,6.7211,6.7234,6.6929,6.6927,6.6926,0,0,6.629,6.6333,6.6442,6.6489,6.6557,6.6573,6.66,6.6661,6.6679,6.6805,6.6776,6.6855,6.6998,6.7046,6.7089,6.7278,6.7252,6.7304,6.74,6.7484,6.7505,6.7524,6.7593,6.7617,6.7319,6.7319,6.7319,0,6.6364,6.6499,6.6501,6.6602,6.6652,6.662,6.6732,6.6776,6.6866,6.6901,6.686,6.704,6.7081,6.7236,6.7282,6.7318,6.7348,6.7296,6.7502,6.7521,6.7539,6.7605,6.763,6.7325,6.7324,6.7324,6.7323,0,6.6588,6.6682,6.6762,6.6852,6.691,6.7016,6.7034,6.7093,6.7087,6.7107,6.7236,6.7285,6.7374,6.741,6.7404,6.7565,6.7541,6.7501,6.7426,6.7571,6.7633,6.7658,6.7334,6.7332,6.733,6.7328,0,0,6.6801,6.6892,6.6922,6.6963,6.7037,6.7109,6.7214,6.7302,6.7353,6.7417,6.7505,6.7628,6.7593,6.7642,6.764,6.7714,6.7862,6.7665,6.7667,6.7701,6.8044,6.8073,6.8102,6.7845,6.785,6.7854,6.8039,0,6.6976,6.716,6.7166,6.7334,6.7422,6.7395,6.7486,6.7541,6.7564,6.7641,6.7666,6.7754,6.7699,6.7729,6.78,6.7829,6.7931,6.7816,6.7927,6.7931,6.7912,6.8134,6.8166,6.8337,6.8062,6.8067,6.8069,0,6.7203,6.7276,6.7454,6.7518,6.7554,6.7637,6.7719,6.7793,6.7856,6.7867,6.7924,6.7912,6.802,6.7942,6.809,6.8012,6.8058,6.8079,6.8086,6.8097,6.8009,6.8151,6.8392,6.8418,6.8107,6.8104,6.8101,0,6.7343,6.7485,6.761,6.7646,6.7723,6.7781,6.7816,6.7874,6.7927,6.7999,6.8034,6.8117,6.8163,6.8227,6.8239,6.8181,6.8388,6.8311,6.8401,6.8401,6.8446,6.8443,6.8698,6.8475,6.8475,6.8474,6.8474,0,6.7537,6.7647,6.7674,6.7751,6.7874,6.788,6.8001,6.8031,6.8084,6.8166,6.8147,6.8225,6.8236,6.8317,6.8326,6.8448,6.8469,6.8481,6.8483,6.8483,6.8482,6.8514,6.8502,6.8481,6.848,6.8478,6.8477,0,6.7713,6.7735,6.787,6.7933,6.7951,6.8039,6.8092,6.8166,6.8188,6.8293,6.8317,6.8351,6.8445,6.8463,6.8574,6.8581,6.8727,6.8716,6.8706,6.8705,6.8794,6.8786,6.9079,6.9118,6.8869,6.8871,6.8873,0,6.7836,6.7921,6.7993,6.8047,6.8085,6.8173,6.8228,6.8238,6.8295,6.8375,6.8439,6.8532,6.8606,6.8758,6.8792,6.8877,6.8869,6.8965,6.8881,6.888,6.8871,6.8866,6.8875,6.8981,6.8984,6.8986,6.8988,0,6.8052,6.806,6.814,6.8225,6.8292,6.8359,6.8422,6.8468,6.8486,6.8553,6.8649,6.8707,6.8822,6.8914,6.9,6.9035,6.9016,6.9015,6.904,6.9042,6.9033,6.904,6.8751,6.9008,6.9006,6.9004,6.9003,6.9002,6.8206,6.8281,6.8344,6.8434,6.8484,6.8544,6.8617,6.8649,6.873,6.8824,6.8825,6.8931,6.8993,6.9106,6.9148,6.9231,6.92,6.9237,6.9246,6.9255,6.9264,6.902,6.9246,6.9246,6.9245,6.9245,6.9244,0,6.8422,6.8462,6.8545,6.8636,6.8708,6.8684,6.8754,6.8815,6.8909,6.8969,6.9044,6.9156,6.9246,6.9288,6.9377,6.9435,6.9429,6.9458,6.9454,6.9463,6.9286,6.9255,6.9462,6.9462,6.9462,6.9462,6.9462,6.9462,6.8543,6.8668,6.8684,6.8833,6.8872,6.8977,6.9019,6.9075,6.9123,6.9249,6.9325,6.9352,6.9405,6.9498,6.958,6.959,6.9624,6.9658,6.9664,6.9497,6.9475,6.9454,6.9425,6.9665,6.9665,6.9834,6.9836,6.9837]},{"header":{"parameterUnit":"m.s-1","parameterCategory":1,"la1":30.2991,"la2":30.254,"lo1":-89.0895,"lo2":-89.0444,"dy":0.0017,"dx":0.0017,"nx":28,"ny":28,"refTime":"2025-01-06T09:00:00:Z","depth":0,"parameterNumber":3,"parameterNumberName":"V-component_of_WINDS"},"data":[0,0,0,0,0,0,0,0,0,0,0,0,0,0,0,0,0,0,0,0,0,0,0,0,0,0,0,0,0,0,0,0,0,0,0,0,0,0,0,0,0,0,0,0,0,0,0,0,0,0,0,0,0,0,0,0,0,0,-7.2185,-7.2187,0,-7.2337,-7.2338,-7.234,-7.2311,-7.2308,-7.2305,-7.2303,-7.2453,-7.2459,-7.2466,0,0,0,0,0,0,0,0,0,0,0,0,0,-7.1869,-7.1875,-7.2185,-7.2187,-7.2189,-7.2336,-7.2338,-7.234,-7.2311,-7.2308,-7.2305,-7.2301,-7.2451,-7.2459,-7.2467,0,0,0,0,0,0,0,0,0,0,0,0,0,-7.2012,-7.1877,-7.2185,-7.2192,-7.2195,-7.2336,-7.2338,-7.2341,-7.2312,-7.2308,-7.2304,-7.23,-7.2448,-7.2458,-7.2468,-7.261,0,0,-7.2498,-7.2502,0,0,0,0,0,0,0,0,-7.2004,-7.2023,-7.2189,-7.2192,-7.2195,-7.2301,-7.2282,-7.2431,-7.2313,-7.2267,-7.2303,-7.2298,-7.2405,-7.2418,-7.2456,-7.2617,-7.2623,-7.2498,-7.2504,-7.2509,-7.2511,0,0,0,0,0,0,0,-7.1994,-7.2017,-7.2245,-7.2192,-7.2195,-7.2187,-7.2203,-7.231,-7.2357,-7.2271,-7.2269,-7.2288,-7.2406,-7.2446,-7.2459,-7.2625,-7.2498,-7.2507,-7.2513,-7.2517,-7.2912,-7.2916,0,0,0,0,0,0,-7.1982,-7.2009,-7.224,-7.2249,-7.2087,-7.2196,-7.2214,-7.2271,-7.2356,-7.2365,-7.2291,-7.2286,-7.2432,-7.2448,-7.2464,-7.2637,-7.2509,-7.2518,-7.2523,-7.2907,-7.2913,-7.2918,0,0,0,0,0,0,-7.1975,-7.2003,-7.2234,-7.2129,-7.2158,-7.2206,-7.227,-7.2276,-7.2316,-7.2371,-7.2379,-7.2324,-7.2429,-7.245,-7.2574,-7.2642,-7.2522,-7.2531,-7.2902,-7.2909,-7.2915,-7.2983,0,0,0,0,0,0,-7.1966,-7.2001,-7.2056,-7.213,-7.2163,-7.2343,-7.2274,-7.2282,-7.2334,-7.2328,-7.2404,-7.2412,-7.2427,-7.256,-7.2584,-7.2653,-7.2539,-7.2896,-7.2905,-7.2913,-7.2975,-7.2991,-7.3006,0,0,0,0,0,-7.1955,-7.2067,-7.2059,-7.2087,-7.2233,-7.2347,-7.2366,-7.2382,-7.2339,-7.2395,-7.243,-7.241,-7.2631,-7.2573,-7.26,-7.2673,-7.2892,-7.2903,-7.2913,-7.2968,-7.2988,-7.3005,0,0,0,0,0,0,-7.1997,-7.2077,-7.2068,-7.2208,-7.2271,-7.2342,-7.2412,-7.2402,-7.2477,-7.2469,-7.2484,-7.2502,-7.2628,-7.2663,-7.2597,-7.2815,-7.2755,-7.2771,-7.2788,-7.2808,-7.2823,-7.2811,-7.2547,0,0,0,0,0,-7.2023,-7.211,-7.2174,-7.2292,-7.2324,-7.2363,-7.2413,-7.242,-7.2485,-7.2511,-7.2556,-7.2619,-7.2702,-7.2757,-7.2837,-7.298,-7.2996,-7.3044,-7.3059,-7.3071,-7.3085,-7.3164,-7.3186,-7.2952,-7.2952,-7.2952,0,0,-7.2077,-7.2131,-7.2185,-7.2302,-7.2351,-7.244,-7.2385,-7.2481,-7.2547,-7.2525,-7.2646,-7.2681,-7.2752,-7.2887,-7.2948,-7.292,-7.3153,-7.3084,-7.3094,-7.3101,-7.3177,-7.3199,-7.3219,-7.2959,-7.2958,-7.2957,0,0,-7.222,-7.227,-7.2374,-7.2426,-7.2502,-7.2528,-7.2553,-7.2626,-7.2649,-7.277,-7.2757,-7.2834,-7.2978,-7.303,-7.3075,-7.3241,-7.3225,-7.3266,-7.3345,-7.3422,-7.3441,-7.3457,-7.3517,-7.3538,-7.328,-7.328,-7.328,0,-7.2277,-7.2411,-7.2428,-7.2527,-7.2578,-7.2565,-7.267,-7.2719,-7.2817,-7.2853,-7.282,-7.3001,-7.3048,-7.3195,-7.3236,-7.3273,-7.3302,-7.3257,-7.3437,-7.3454,-7.3469,-7.3526,-7.3548,-7.3284,-7.3284,-7.3283,-7.3283,0,-7.2478,-7.2571,-7.2645,-7.2743,-7.2803,-7.2904,-7.2936,-7.2995,-7.2998,-7.3026,-7.3151,-7.3207,-7.3299,-7.3334,-7.3337,-7.3483,-7.3463,-7.3433,-7.3373,-7.3496,-7.3549,-7.3571,-7.3291,-7.3289,-7.3288,-7.3287,0,0,-7.265,-7.2758,-7.2785,-7.2829,-7.2914,-7.2986,-7.3086,-7.3178,-7.3228,-7.3297,-7.3381,-7.3504,-7.3479,-7.353,-7.3538,-7.3606,-7.3735,-7.3569,-7.3571,-7.3598,-7.3899,-7.3921,-7.3945,-7.3725,-7.373,-7.3733,-7.3893,0,-7.2802,-7.2981,-7.3,-7.3159,-7.3246,-7.3236,-7.3323,-7.3384,-7.3415,-7.3492,-7.3524,-7.3611,-7.357,-7.3602,-7.3668,-7.3705,-7.3795,-7.3694,-7.3803,-7.3807,-7.3786,-7.3973,-7.3996,-7.4145,-7.3914,-7.3918,-7.392,0,-7.3002,-7.3078,-7.3247,-7.3321,-7.3358,-7.3437,-7.3523,-7.3597,-7.3666,-7.3683,-7.3742,-7.3742,-7.3846,-7.3782,-7.3925,-7.3855,-7.3901,-7.3926,-7.3932,-7.3943,-7.3871,-7.3989,-7.4192,-7.4215,-7.3954,-7.3951,-7.3949,0,-7.3111,-7.3256,-7.3376,-7.3415,-7.3504,-7.356,-7.3599,-7.3665,-7.3719,-7.3794,-7.383,-7.3915,-7.3962,-7.4028,-7.4051,-7.4002,-7.4193,-7.4131,-7.4209,-7.4209,-7.4249,-7.4246,-7.4463,-7.4279,-7.4279,-7.4279,-7.4278,0,-7.3278,-7.3382,-7.3427,-7.3501,-7.3617,-7.3638,-7.3752,-7.3788,-7.3847,-7.3928,-7.3924,-7.3999,-7.4025,-7.4105,-7.4123,-7.4239,-7.426,-7.4276,-7.428,-7.4276,-7.4274,-7.4306,-7.4296,-7.4284,-7.4283,-7.4282,-7.4281,0,-7.3419,-7.3454,-7.3584,-7.3659,-7.368,-7.3763,-7.3826,-7.3897,-7.3927,-7.4029,-7.4054,-7.41,-7.4194,-7.4224,-7.4336,-7.4349,-7.4484,-7.4479,-7.4461,-7.4462,-7.4538,-7.4531,-7.4783,-7.4817,-7.4611,-7.4613,-7.4615,0,-7.3523,-7.3603,-7.3687,-7.3742,-7.3784,-7.3871,-7.3928,-7.3952,-7.401,-7.4096,-7.4157,-7.425,-7.4326,-7.4476,-7.4519,-7.4606,-7.4602,-7.4685,-7.4615,-7.461,-7.4604,-7.4599,-7.4607,-7.4697,-7.4699,-7.4701,-7.4703,0,-7.3704,-7.3718,-7.38,-7.3889,-7.3956,-7.4026,-7.4094,-7.4139,-7.4173,-7.4239,-7.4336,-7.4395,-7.4511,-7.4604,-7.4692,-7.4732,-7.4723,-7.4725,-7.4747,-7.4745,-7.4731,-7.474,-7.4497,-7.4718,-7.4717,-7.4716,-7.4715,-7.4714,-7.3831,-7.3901,-7.3972,-7.4064,-7.4118,-7.4182,-7.4253,-7.4293,-7.4374,-7.4472,-7.4481,-7.4586,-7.4654,-7.4772,-7.4817,-7.4898,-7.4875,-7.4907,-7.4916,-7.4923,-7.493,-7.4719,-7.4914,-7.4914,-7.4914,-7.4913,-7.4913,0,-7.4012,-7.4057,-7.4141,-7.4238,-7.431,-7.4298,-7.4372,-7.4433,-7.4526,-7.4591,-7.4667,-7.4778,-7.4869,-7.492,-7.501,-7.5066,-7.5064,-7.5089,-7.5084,-7.5094,-7.4945,-7.4917,-7.5088,-7.5088,-7.5088,-7.5088,-7.5088,-7.5088,-7.4114,-7.4234,-7.4257,-7.4403,-7.4448,-7.4552,-7.4596,-7.4655,-7.4707,-7.4833,-7.4908,-7.4942,-7.5002,-7.5096,-7.5179,-7.5191,-7.5225,-7.5252,-7.5262,-7.5122,-7.5104,-7.5087,-7.506,-7.5259,-7.5259,-7.5404,-7.5405,-7.5406]}]]